EW4483 Iwata JP current weather conditions

sailwx.info

Wind from 093 at 2 knots gusting 7

Air temperature 8.9° C
Dewpoint 6.3° C

Last reported at 2020-Jan-26 08:03 UTC.
Time now 2020-Jan-26 08:33 UTC

Location: N 34°42' E 137°49'.
View on Google Maps.

See reports from other nearby stations

  
Tides and Currents Weather Stations Pressure Air Temp Water Temp Dewpoint Dewpoint Depression Visibility Wind Speed Wind Dir Waves Ship Positions
date/time (UTC)wind fromknots sea level pressurealtimeterstation pressurevisibilityair tempwater tempwave heightnotes
2020-Jan-26 08:03 093 2 gusting 7 8.9
2020-Jan-26 07:58 090 1 gusting 6 8.9
2020-Jan-26 07:53 092 2 gusting 6 8.9
2020-Jan-26 07:48 092 1 gusting 6 8.9
2020-Jan-26 07:38 092 1 gusting 6 8.9
2020-Jan-26 07:28 099 2 gusting 6 9.4
2020-Jan-26 07:23 118 2 gusting 6 9.4
2020-Jan-26 07:18 100 1 gusting 2 9.4
2020-Jan-26 07:08 115 1 gusting 5 9.4
2020-Jan-26 07:03 106 1 gusting 2 9.4
2020-Jan-26 06:58 086 1 gusting 6 9.4
2020-Jan-26 06:53 102 1 gusting 5 9.4
2020-Jan-26 06:48 100 1 gusting 7 9.4
2020-Jan-26 06:43 089 1 gusting 5 9.4
2020-Jan-26 06:38 113 1 gusting 5 9.4
2020-Jan-26 06:33 113 1 gusting 2 9.4
2020-Jan-26 06:28 116 1 gusting 6 9.4
2020-Jan-26 06:23 088 1 gusting 6 9.4
2020-Jan-26 06:18 087 2 gusting 6 9.4
2020-Jan-26 06:08 079 2 gusting 7 9.4
2020-Jan-26 05:58 084 2 gusting 6 9.4
2020-Jan-26 05:53 087 2 gusting 6 9.4
2020-Jan-26 05:48 099 2 gusting 7 9.4
2020-Jan-26 05:43 097 1 gusting 6 9.4
2020-Jan-26 05:38 093 1 gusting 2 9.4
2020-Jan-26 05:33 085 1 gusting 6 8.9
2020-Jan-26 05:23 090 2 gusting 5 8.9
2020-Jan-26 05:13 070 0 gusting 2 8.9
2020-Jan-26 05:03 066 1 gusting 5 8.9
2020-Jan-26 04:58 062 2 gusting 5 8.9
2020-Jan-26 04:53 059 1 gusting 4 8.9
2020-Jan-26 04:48 073 1 gusting 6 8.9
2020-Jan-26 04:43 091 1 gusting 5 8.9
2020-Jan-26 04:38 067 1 gusting 4 8.9
2020-Jan-26 04:33 075 1 gusting 2 8.9
2020-Jan-26 04:28 075 0 gusting 2 8.9
2020-Jan-26 04:23 089 1 gusting 6 8.9
2020-Jan-26 04:18 099 1 gusting 5 8.9
2020-Jan-26 04:13 086 2 gusting 5 8.9
2020-Jan-26 04:08 083 1 gusting 6 8.9
2020-Jan-26 04:03 089 0 gusting 2 8.9
2020-Jan-26 03:58 091 1 gusting 6 8.9
2020-Jan-26 03:53 093 0 gusting 2 8.9
2020-Jan-26 03:48 093 0 gusting 2 8.9
2020-Jan-26 03:43 093 1 gusting 2 8.9
2020-Jan-26 03:38 075 1 gusting 4 8.9
2020-Jan-26 03:33 061 2 gusting 6 8.3
2020-Jan-26 03:28 070 1 gusting 2 8.3
2020-Jan-26 03:23 068 0 gusting 2 8.3
2020-Jan-26 03:18 069 2 gusting 4 8.3
2020-Jan-26 03:13 084 1 gusting 4 8.3
2020-Jan-26 03:08 088 1 gusting 2 8.3
2020-Jan-26 03:03 085 1 gusting 4 8.3
2020-Jan-26 02:58 079 0 gusting 2 8.3
2020-Jan-26 02:53 077 1 gusting 2 8.3
2020-Jan-26 02:48 069 1 gusting 4 8.3
2020-Jan-26 02:43 067 2 gusting 6 8.3
2020-Jan-26 02:38 087 1 gusting 2 8.3
2020-Jan-26 02:33 087 1 gusting 4 8.3
2020-Jan-26 02:28 078 2 gusting 4 8.3
2020-Jan-26 02:23 087 2 gusting 6 8.3
2020-Jan-26 02:18 097 1 gusting 5 8.3
2020-Jan-26 02:13 079 2 gusting 6 8.3
2020-Jan-26 02:08 084 1 gusting 2 8.3
2020-Jan-26 02:03 076 1 gusting 4 8.3
2020-Jan-26 01:58 060 0 gusting 2 8.3
2020-Jan-26 01:53 060 1 gusting 2 8.3
2020-Jan-26 01:48 060 0 gusting 2 8.3
2020-Jan-26 01:43 060 0 gusting 2 7.8
2020-Jan-26 01:38 060 0 gusting 2 8.3
2020-Jan-26 01:33 060 0 gusting 2 8.3
2020-Jan-26 01:28 060 0 gusting 4 7.8
2020-Jan-26 01:23 061 2 gusting 5 7.8
2020-Jan-26 01:18 065 0 gusting 2 7.8
2020-Jan-26 01:13 065 1 gusting 2 7.8
2020-Jan-26 01:08 066 2 gusting 6 7.8
2020-Jan-26 01:03 064 2 gusting 5 7.8
2020-Jan-26 00:58 052 2 gusting 6 7.8
2020-Jan-26 00:53 081 1 gusting 4 7.8
2020-Jan-26 00:48 082 3 gusting 6 7.8
2020-Jan-26 00:43 083 3 gusting 8 7.8
2020-Jan-26 00:38 071 2 gusting 8 7.8
2020-Jan-26 00:33 077 3 gusting 7 7.8
2020-Jan-26 00:28 070 4 gusting 8 7.2
2020-Jan-26 00:23 069 2 gusting 8 7.2
2020-Jan-26 00:18 067 4 gusting 8 7.2
2020-Jan-26 00:13 082 4 gusting 8 7.2
2020-Jan-26 00:08 091 5 gusting 11 7.2
2020-Jan-26 00:03 086 4 gusting 8 7.2
2020-Jan-25 23:58 084 4 gusting 10 7.2
2020-Jan-25 23:53 079 4 gusting 10 7.2
2020-Jan-25 23:48 082 5 gusting 10 7.2
2020-Jan-25 23:43 097 4 gusting 10 7.2
2020-Jan-25 23:38 093 4 gusting 8 7.2
2020-Jan-25 23:33 098 2 gusting 6 7.2
2020-Jan-25 23:28 093 3 gusting 10 7.2
2020-Jan-25 23:23 093 2 gusting 7 7.2
2020-Jan-25 23:18 091 3 gusting 7 7.2
2020-Jan-25 23:13 087 4 gusting 10 7.2
2020-Jan-25 23:08 096 4 gusting 8 7.2
2020-Jan-25 23:03 104 2 gusting 7 7.2
2020-Jan-25 22:58 093 2 gusting 6 7.2
2020-Jan-25 22:53 095 2 gusting 7 7.2
2020-Jan-25 22:48 090 2 gusting 6 7.2
2020-Jan-25 22:43 094 3 gusting 6 7.2
2020-Jan-25 22:38 105 3 gusting 8 7.2
2020-Jan-25 22:33 090 2 gusting 6 7.2
2020-Jan-25 22:28 086 2 gusting 6 7.2
2020-Jan-25 22:23 087 2 gusting 7 7.2
2020-Jan-25 22:18 089 1 gusting 6 7.2
2020-Jan-25 22:13 075 1 gusting 4 7.2
2020-Jan-25 22:08 076 3 gusting 7 7.2
2020-Jan-25 22:03 090 2 gusting 7 7.8
2020-Jan-25 21:58 081 0 gusting 8 7.8
2020-Jan-25 21:53 075 2 gusting 8 7.8
2020-Jan-25 21:48 084 1 gusting 4 7.8
2020-Jan-25 21:43 086 2 gusting 6 7.8
2020-Jan-25 21:38 068 1 gusting 2 7.8
2020-Jan-25 21:33 068 0 gusting 2 7.8
2020-Jan-25 21:28 064 1 gusting 4 7.8
2020-Jan-25 21:23 056 1 gusting 4 7.8
2020-Jan-25 21:18 068 4 gusting 6 7.8
2020-Jan-25 21:13 064 3 gusting 6 7.8
2020-Jan-25 21:08 058 4 gusting 6 7.8
2020-Jan-25 21:03 065 4 gusting 7 7.8
2020-Jan-25 20:58 056 3 gusting 7 7.8
2020-Jan-25 20:53 067 2 gusting 6 7.8
2020-Jan-25 20:48 061 2 gusting 6 7.8
2020-Jan-25 20:43 064 2 gusting 6 7.8
2020-Jan-25 20:38 063 2 gusting 5 7.8
2020-Jan-25 20:33 078 2 gusting 7 7.8
2020-Jan-25 20:28 065 2 gusting 7 7.8
2020-Jan-25 20:23 077 3 gusting 8 7.8
2020-Jan-25 20:18 086 4 gusting 8 7.8
2020-Jan-25 20:13 083 4 gusting 8 7.8
2020-Jan-25 20:08 098 3 gusting 8 7.8
2020-Jan-25 20:03 086 3 gusting 7 7.8
2020-Jan-25 19:58 084 3 gusting 7 7.8
2020-Jan-25 19:53 085 4 gusting 7 7.8
2020-Jan-25 19:48 090 2 gusting 6 7.8
2020-Jan-25 19:43 091 3 gusting 8 7.8
2020-Jan-25 19:38 083 4 gusting 7 7.8
2020-Jan-25 19:33 081 1 gusting 7 7.8
2020-Jan-25 19:28 081 3 gusting 7 7.8
2020-Jan-25 19:23 083 4 gusting 7 7.8
2020-Jan-25 19:18 073 2 gusting 6 7.8
2020-Jan-25 19:13 082 2 gusting 6 7.8
2020-Jan-25 19:08 084 2 gusting 6 7.8
2020-Jan-25 19:03 079 1 gusting 6 7.8
2020-Jan-25 18:58 085 1 gusting 5 7.8
2020-Jan-25 18:53 082 2 gusting 6 7.8
2020-Jan-25 18:48 088 1 gusting 6 7.8
2020-Jan-25 18:43 090 2 gusting 6 7.8
2020-Jan-25 18:38 080 1 gusting 5 7.8
2020-Jan-25 18:33 077 1 gusting 5 7.8
2020-Jan-25 18:28 089 1 gusting 6 7.8
2020-Jan-25 18:23 080 1 gusting 5 7.8
2020-Jan-25 18:18 082 1 gusting 6 7.8
2020-Jan-25 18:13 073 1 gusting 4 7.8
2020-Jan-25 18:08 072 0 gusting 2 8.3
2020-Jan-25 18:03 072 0 gusting 2 8.3
2020-Jan-25 17:58 072 0 gusting 1 8.3
2020-Jan-25 17:53 072 8.3
2020-Jan-25 17:48 071 0 gusting 2 8.3
2020-Jan-25 17:43 072 0 gusting 2 8.3
2020-Jan-25 17:38 072 0 gusting 1 8.3
2020-Jan-25 17:33 072 8.3
2020-Jan-25 17:28 072 0 gusting 1 8.3
2020-Jan-25 17:23 072 0 gusting 2 8.3
2020-Jan-25 17:18 072 0 gusting 1 8.3
2020-Jan-25 17:13 072 8.3
2020-Jan-25 17:08 072 8.3
2020-Jan-25 17:03 072 0 gusting 2 8.3
2020-Jan-25 16:58 072 0 gusting 2 8.3
2020-Jan-25 16:53 072 1 gusting 2 8.3
2020-Jan-25 16:48 067 1 gusting 4 8.3
2020-Jan-25 16:43 058 0 gusting 2 8.3
2020-Jan-25 16:38 058 2 gusting 4 8.3
2020-Jan-25 16:33 064 1 gusting 5 8.3
2020-Jan-25 16:28 054 2 gusting 4 8.3
2020-Jan-25 16:23 032 2 gusting 4 8.3
2020-Jan-25 16:18 063 4 gusting 6 8.3
2020-Jan-25 16:13 055 3 gusting 6 8.3
2020-Jan-25 16:08 080 4 gusting 12 8.3
2020-Jan-25 16:03 096 1 gusting 5 8.3
2020-Jan-25 15:58 100 1 gusting 2 8.3
2020-Jan-25 15:53 100 0 gusting 1 8.3
2020-Jan-25 15:48 100 0 gusting 2 8.3
2020-Jan-25 15:43 101 0 gusting 2 8.3
2020-Jan-25 15:38 091 1 gusting 2 8.3
2020-Jan-25 15:33 088 0 gusting 2 8.9
2020-Jan-25 15:28 088 0 gusting 2 8.9
2020-Jan-25 15:23 087 1 gusting 2 8.9
2020-Jan-25 15:18 082 1 gusting 4 8.9
2020-Jan-25 15:13 066 0 gusting 2 8.9
2020-Jan-25 15:08 066 0 gusting 2 8.9
2020-Jan-25 15:03 066 1 gusting 2 8.9
2020-Jan-25 14:58 066 1 gusting 2 8.9
2020-Jan-25 14:53 066 1 gusting 2 8.9
2020-Jan-25 14:48 066 1 gusting 2 9.4
2020-Jan-25 14:43 066 1 gusting 2 9.4
2020-Jan-25 14:38 066 0 gusting 1 10.0
2020-Jan-25 14:33 066 0 gusting 2 10.0
2020-Jan-25 14:28 065 1 gusting 2 10.0
2020-Jan-25 14:23 064 1 gusting 2 10.6
2020-Jan-25 14:18 064 0 gusting 2 10.6
2020-Jan-25 14:13 063 0 gusting 2 10.6
2020-Jan-25 14:08 063 1 gusting 5 10.6
2020-Jan-25 14:03 062 2 gusting 4 10.6
2020-Jan-25 13:58 064 2 gusting 8 10.6
2020-Jan-25 13:53 088 2 gusting 7 10.6
2020-Jan-25 13:48 098 1 gusting 7 10.6
2020-Jan-25 13:43 104 2 gusting 7 10.6
2020-Jan-25 13:38 091 2 gusting 6 10.6
2020-Jan-25 13:33 101 2 gusting 6 10.6
2020-Jan-25 13:28 104 2 gusting 7 10.6
2020-Jan-25 13:23 102 2 gusting 7 10.6
2020-Jan-25 13:18 094 4 gusting 8 10.6
2020-Jan-25 13:13 086 5 gusting 12 10.6
2020-Jan-25 13:08 091 4 gusting 8 10.6
2020-Jan-25 13:03 086 4 gusting 10 10.6
2020-Jan-25 12:58 093 4 gusting 8 11.1
2020-Jan-25 12:53 101 2 gusting 7 11.1
2020-Jan-25 12:48 097 2 gusting 6 11.1
2020-Jan-25 12:43 089 3 gusting 8 11.1
2020-Jan-25 12:38 097 3 gusting 8 11.1
2020-Jan-25 12:33 093 4 gusting 10 11.1
2020-Jan-25 12:28 106 2 gusting 10 11.1
2020-Jan-25 12:23 095 2 gusting 6 11.1
2020-Jan-25 12:18 092 2 gusting 6 11.1
2020-Jan-25 12:13 090 2 gusting 6 11.1
2020-Jan-25 12:08 087 2 gusting 6 11.1
2020-Jan-25 12:03 088 2 gusting 7 11.1
2020-Jan-25 11:58 097 2 gusting 6 11.1
2020-Jan-25 11:53 100 1 gusting 6 11.1
2020-Jan-25 11:48 087 2 gusting 6 11.1
2020-Jan-25 11:43 099 1 gusting 7 11.1
2020-Jan-25 11:38 092 2 gusting 6 11.7
2020-Jan-25 11:33 082 2 gusting 6 11.7
2020-Jan-25 11:28 082 4 gusting 10 11.7
2020-Jan-25 11:23 079 3 gusting 7 11.7
2020-Jan-25 11:18 090 2 gusting 6 11.7
2020-Jan-25 11:13 104 2 gusting 6 11.7
2020-Jan-25 11:08 099 3 gusting 6 11.7
2020-Jan-25 11:03 085 4 gusting 7 11.7
2020-Jan-25 10:58 088 4 gusting 12 12.2
2020-Jan-25 10:53 095 2 gusting 6 12.2
2020-Jan-25 10:48 092 1 gusting 6 12.2
2020-Jan-25 10:43 101 1 gusting 5 12.2
2020-Jan-25 10:38 085 1 gusting 7 12.2
2020-Jan-25 10:33 081 2 gusting 6 12.2
2020-Jan-25 10:28 095 0 gusting 2 12.2
2020-Jan-25 10:23 095 1 gusting 2 12.2
2020-Jan-25 10:18 095 0 gusting 2 12.2
2020-Jan-25 10:13 092 1 gusting 2 12.2
2020-Jan-25 10:08 087 0 gusting 2 12.2
2020-Jan-25 10:03 085 0 gusting 1 12.2
2020-Jan-25 09:58 085 0 gusting 2 12.2
2020-Jan-25 09:53 085 0 gusting 2 12.2
2020-Jan-25 09:48 085 0 gusting 2 12.8
2020-Jan-25 09:43 084 1 gusting 5 12.8
2020-Jan-25 09:38 095 1 gusting 4 12.8
2020-Jan-25 09:33 108 1 gusting 2 12.8
2020-Jan-25 09:28 111 1 gusting 5 12.8
2020-Jan-25 09:23 102 1 gusting 5 12.8
2020-Jan-25 09:18 108 2 gusting 6 12.8
2020-Jan-25 09:13 101 1 gusting 6 12.8
2020-Jan-25 09:08 094 1 gusting 4 12.8
2020-Jan-25 09:03 089 0 gusting 2 12.8
2020-Jan-25 08:58 080 1 gusting 6 12.8
2020-Jan-25 08:53 101 1 gusting 2 12.8
2020-Jan-25 08:48 108 1 gusting 5 12.8
2020-Jan-25 08:43 110 1 gusting 5 12.8
2020-Jan-25 08:38 105 1 gusting 5 13.3
2020-Jan-25 08:33 095 2 gusting 6 13.3
2020-Jan-25 08:28 097 1 gusting 5 13.3
2020-Jan-25 08:23 101 1 gusting 2 13.3
2020-Jan-25 08:18 107 1 gusting 2 13.3
2020-Jan-25 08:13 106 1 gusting 5 13.9
2020-Jan-25 08:08 102 2 gusting 4 13.9
2020-Jan-25 08:03 113 1 gusting 2 13.9
2020-Jan-25 07:58 126 2 gusting 6 13.9
2020-Jan-25 07:53 127 1 gusting 6 13.9
2020-Jan-25 07:48 130 1 gusting 2 13.9
2020-Jan-25 07:43 124 2 gusting 5 13.9
2020-Jan-25 07:38 138 2 gusting 4 14.4
2020-Jan-25 07:33 131 2 gusting 6 14.4
2020-Jan-25 07:28 136 2 gusting 6 14.4
2020-Jan-25 07:23 129 1 gusting 6 14.4
2020-Jan-25 07:18 135 2 gusting 5 14.4
2020-Jan-25 07:13 138 1 gusting 6 14.4
2020-Jan-25 07:08 136 2 gusting 4 14.4
2020-Jan-25 07:03 125 2 gusting 5 15.0
2020-Jan-25 06:58 128 1 gusting 4 15.0
2020-Jan-25 06:53 133 1 gusting 4 15.0
2020-Jan-25 06:48 133 2 gusting 2 15.0
2020-Jan-25 06:43 137 2 gusting 4 15.0
2020-Jan-25 06:38 118 1 gusting 6 15.0
2020-Jan-25 06:33 129 1 gusting 4 15.0
2020-Jan-25 06:28 130 1 gusting 6 15.0
2020-Jan-25 06:23 117 1 gusting 4 15.6
2020-Jan-25 06:18 130 2 gusting 6 15.6
2020-Jan-25 06:13 121 2 gusting 6 15.6
2020-Jan-25 06:08 136 2 gusting 6 15.6
2020-Jan-25 06:03 150 1 gusting 4 15.6
2020-Jan-25 05:58 134 2 gusting 6 15.6
2020-Jan-25 05:53 131 1 gusting 2 15.6
2020-Jan-25 05:48 132 1 gusting 4 15.6
2020-Jan-25 05:43 136 1 gusting 2 15.6
2020-Jan-25 05:38 133 1 gusting 6 15.6
2020-Jan-25 05:33 136 1 gusting 6 15.6
2020-Jan-25 05:28 143 2 gusting 5 15.6
2020-Jan-25 05:23 133 1 gusting 2 15.6
2020-Jan-25 05:18 134 1 gusting 4 15.6
2020-Jan-25 05:13 132 2 gusting 6 16.1
2020-Jan-25 05:08 124 1 gusting 4 16.1
2020-Jan-25 05:03 123 2 gusting 4 15.6
2020-Jan-25 04:58 139 1 gusting 6 16.1
2020-Jan-25 04:53 135 3 gusting 6 16.1
2020-Jan-25 04:48 159 3 gusting 6 16.7
2020-Jan-25 04:43 140 2 gusting 6 16.7
2020-Jan-25 04:38 172 3 gusting 6 17.2
2020-Jan-25 04:33 131 2 gusting 6 17.2
2020-Jan-25 04:28 143 4 gusting 7 17.2
2020-Jan-25 04:23 136 2 gusting 6 17.2
2020-Jan-25 04:18 136 0 gusting 2 17.2
2020-Jan-25 04:13 136 1 gusting 2 16.7
2020-Jan-25 04:08 147 2 gusting 4 16.7
2020-Jan-25 04:03 128 3 gusting 6 16.7
2020-Jan-25 03:58 117 0 gusting 2 16.1
2020-Jan-25 03:53 123 1 gusting 6 16.1
2020-Jan-25 03:48 137 2 gusting 6 16.1
2020-Jan-25 03:43 140 2 gusting 6 16.1
2020-Jan-25 03:38 084 1 gusting 4 16.1
2020-Jan-25 03:33 137 1 gusting 2 15.6
2020-Jan-25 03:28 131 0 gusting 2 15.6
2020-Jan-25 03:23 129 1 gusting 5 15.0
2020-Jan-25 03:18 110 0 gusting 5 15.0
2020-Jan-25 03:13 085 1 gusting 5 14.4
2020-Jan-25 03:08 096 1 gusting 2 15.0
2020-Jan-25 03:03 132 0 gusting 2 15.0
2020-Jan-25 02:58 141 0 gusting 2 14.4
2020-Jan-25 02:53 145 1 gusting 2 14.4
2020-Jan-25 02:48 178 0 gusting 2 14.4
2020-Jan-25 02:43 177 1 gusting 2 14.4
2020-Jan-25 02:38 113 0 gusting 2 14.4
2020-Jan-25 02:33 090 0 gusting 2 14.4
2020-Jan-25 02:28 078 0 gusting 2 14.4
2020-Jan-25 02:23 080 0 gusting 2 14.4
2020-Jan-25 02:18 079 13.9
2020-Jan-25 02:13 062 1 gusting 2 13.9
2020-Jan-25 02:08 030 13.3
2020-Jan-25 02:03 030 2 gusting 2 13.3
2020-Jan-25 01:58 023 1 gusting 2 13.3
2020-Jan-25 01:53 024 0 gusting 2 13.3
2020-Jan-25 01:48 024 1 gusting 2 13.3
2020-Jan-25 01:43 021 1 gusting 2 12.8
2020-Jan-25 01:38 038 2 gusting 2 12.8
2020-Jan-25 01:33 041 2 gusting 4 12.8
2020-Jan-25 01:28 039 2 gusting 6 12.8
2020-Jan-25 01:23 014 2 gusting 6 12.8
2020-Jan-25 01:18 018 2 gusting 5 12.8
2020-Jan-25 01:13 359 0 gusting 4 12.8
2020-Jan-25 01:08 027 2 gusting 4 12.8
2020-Jan-25 01:03 009 1 gusting 4 12.8
2020-Jan-25 00:58 005 2 gusting 5 12.8
2020-Jan-25 00:53 001 3 gusting 6 12.2
2020-Jan-25 00:48 358 3 gusting 7 12.2
2020-Jan-25 00:43 016 2 gusting 5 12.2
2020-Jan-25 00:38 019 4 gusting 6 11.7
2020-Jan-25 00:33 022 2 gusting 6 11.7
2020-Jan-25 00:28 019 2 gusting 6 11.7
2020-Jan-25 00:23 013 3 gusting 6 11.1
2020-Jan-25 00:18 006 2 gusting 5 11.1
2020-Jan-25 00:13 026 2 gusting 5 11.1
2020-Jan-25 00:08 011 2 gusting 5 10.6
2020-Jan-25 00:03 011 2 gusting 6 10.6
2020-Jan-24 23:58 010 2 gusting 6 10.6
2020-Jan-24 23:53 004 2 gusting 4 10.6
2020-Jan-24 23:48 029 2 gusting 6 10.6
2020-Jan-24 23:43 356 1 gusting 4 10.0
2020-Jan-24 23:38 010 2 gusting 5 10.0
2020-Jan-24 23:33 353 2 gusting 6 10.0
2020-Jan-24 23:28 015 2 gusting 4 10.0
2020-Jan-24 23:23 015 2 gusting 5 10.0
2020-Jan-24 23:18 014 2 gusting 5 10.0
2020-Jan-24 23:13 008 2 gusting 6 9.4
2020-Jan-24 23:08 009 2 gusting 5 9.4
2020-Jan-24 23:03 021 1 gusting 4 9.4
2020-Jan-24 22:58 009 1 gusting 6 8.9
2020-Jan-24 22:53 013 1 gusting 4 8.9
2020-Jan-24 22:48 009 1 gusting 2 8.9
2020-Jan-24 22:43 359 2 gusting 5 8.9
2020-Jan-24 22:38 346 2 gusting 4 8.3
2020-Jan-24 22:33 347 2 gusting 5 8.3
2020-Jan-24 22:28 346 2 gusting 5 8.3
2020-Jan-24 22:23 321 1 gusting 2 8.3
2020-Jan-24 22:18 318 1 gusting 2 7.8
2020-Jan-24 22:13 320 1 gusting 2 7.8
2020-Jan-24 22:08 321 2 gusting 2 7.8
2020-Jan-24 22:03 322 2 gusting 4 7.8
2020-Jan-24 21:58 325 2 gusting 2 7.8
2020-Jan-24 21:53 317 2 gusting 2 7.8
2020-Jan-24 21:48 310 1 gusting 2 7.8
2020-Jan-24 21:43 313 0 gusting 1 7.8
2020-Jan-24 21:38 314 1 gusting 2 7.8
2020-Jan-24 21:33 310 1 gusting 2 7.8
2020-Jan-24 21:28 310 2 gusting 4 7.8
2020-Jan-24 21:23 325 1 gusting 2 7.8
2020-Jan-24 21:18 326 2 gusting 4 7.8
2020-Jan-24 21:13 318 2 gusting 6 7.8
2020-Jan-24 21:08 308 2 gusting 5 7.8
2020-Jan-24 21:03 331 3 gusting 5 8.3
2020-Jan-24 20:58 333 2 gusting 5 8.3
2020-Jan-24 20:53 308 2 gusting 4 8.3
2020-Jan-24 20:48 324 2 gusting 4 8.3
2020-Jan-24 20:43 310 1 gusting 4 8.3
2020-Jan-24 20:38 305 2 gusting 4 8.3
2020-Jan-24 20:33 310 2 gusting 5 8.3
2020-Jan-24 20:28 314 2 gusting 2 8.3
2020-Jan-24 20:23 311 2 gusting 4 8.9
2020-Jan-24 20:18 314 3 gusting 6 8.9
2020-Jan-24 20:13 293 3 gusting 6 8.9
2020-Jan-24 20:08 317 2 gusting 7 8.9
2020-Jan-24 20:03 309 6 gusting 8 8.9
2020-Jan-24 19:58 310 3 gusting 6 8.9
2020-Jan-24 19:53 310 4 gusting 6 8.3
2020-Jan-24 19:48 299 2 gusting 6 8.3
2020-Jan-24 19:43 308 2 gusting 6 8.3
2020-Jan-24 19:38 287 2 gusting 5 8.3
2020-Jan-24 19:33 292 2 gusting 6 8.3
2020-Jan-24 19:28 292 3 gusting 6 8.9
2020-Jan-24 19:23 303 3 gusting 6 8.9
2020-Jan-24 19:18 311 4 gusting 6 8.9
2020-Jan-24 19:13 295 3 gusting 6 8.9
2020-Jan-24 19:08 309 5 gusting 10 8.9
2020-Jan-24 19:03 313 4 gusting 7 8.9
2020-Jan-24 18:58 319 6 gusting 8 8.9
2020-Jan-24 18:53 302 4 gusting 6 8.9
2020-Jan-24 18:48 311 5 gusting 8 8.9
2020-Jan-24 18:43 300 6 gusting 10 8.9
2020-Jan-24 18:38 308 6 gusting 10 8.9
2020-Jan-24 18:33 317 6 gusting 10 8.9
2020-Jan-24 18:28 302 6 gusting 10 8.9
2020-Jan-24 18:23 303 6 gusting 10 8.9
2020-Jan-24 18:18 305 5 gusting 10 8.9
2020-Jan-24 18:13 297 6 gusting 10 8.9
2020-Jan-24 18:08 314 4 gusting 6 8.3
2020-Jan-24 18:03 295 5 gusting 7 8.3
2020-Jan-24 17:58 298 4 gusting 6 8.3
2020-Jan-24 17:53 302 4 gusting 7 8.3
2020-Jan-24 17:48 292 4 gusting 6 8.3
2020-Jan-24 17:43 285 5 gusting 8 8.3
2020-Jan-24 17:38 294 4 gusting 7 8.9
2020-Jan-24 17:33 299 4 gusting 8 8.3
2020-Jan-24 17:28 290 6 gusting 8 8.9
2020-Jan-24 17:23 298 5 gusting 8 8.9
2020-Jan-24 17:18 286 6 gusting 8 8.9
2020-Jan-24 17:13 298 6 gusting 11 8.9
2020-Jan-24 17:08 298 8 gusting 11 8.9
2020-Jan-24 17:03 304 6 gusting 10 8.9
2020-Jan-24 16:58 298 7 gusting 10 8.9
2020-Jan-24 16:53 297 6 gusting 8 8.9
2020-Jan-24 16:48 294 6 gusting 7 8.9
2020-Jan-24 16:43 282 4 gusting 10 8.9
2020-Jan-24 16:38 283 5 gusting 7 8.9
2020-Jan-24 16:33 286 2 gusting 6 8.9
2020-Jan-24 16:28 289 2 gusting 6 8.9
2020-Jan-24 16:23 280 3 gusting 6 8.9
2020-Jan-24 16:18 276 5 gusting 7 8.9
2020-Jan-24 16:13 282 4 gusting 6 8.9
2020-Jan-24 16:08 296 5 gusting 20 8.9
2020-Jan-24 16:03 295 5 gusting 8 8.9
2020-Jan-24 15:58 289 5 gusting 8 8.9
2020-Jan-24 15:53 291 7 gusting 11 9.4
2020-Jan-24 15:48 289 6 gusting 11 9.4
2020-Jan-24 15:43 291 5 gusting 10 9.4
2020-Jan-24 15:38 294 8 gusting 12 9.4
2020-Jan-24 15:33 300 7 gusting 12 9.4
2020-Jan-24 15:28 290 7 gusting 11 9.4
2020-Jan-24 15:23 305 6 gusting 10 9.4
2020-Jan-24 15:18 289 6 gusting 10 9.4
2020-Jan-24 15:13 292 6 gusting 10 9.4
2020-Jan-24 15:08 274 3 gusting 7 9.4
2020-Jan-24 15:03 276 4 gusting 6 10.0
2020-Jan-24 14:58 289 3 gusting 6 10.0
2020-Jan-24 14:53 278 6 gusting 8 10.0
2020-Jan-24 14:48 289 5 gusting 11 10.0
2020-Jan-24 14:43 289 6 gusting 10 10.0
2020-Jan-24 14:38 301 6 gusting 11 10.6
2020-Jan-24 14:33 293 6 gusting 10 10.6
2020-Jan-24 14:28 299 8 gusting 12 10.6
2020-Jan-24 14:23 307 8 gusting 13 10.6
2020-Jan-24 14:18 301 8 gusting 13 10.6
2020-Jan-24 14:13 298 8 gusting 13 10.6
2020-Jan-24 14:08 303 10 gusting 13 11.1
2020-Jan-24 14:03 306 10 gusting 14 11.1
2020-Jan-24 13:58 305 9 gusting 13 11.1
2020-Jan-24 13:53 303 10 gusting 14 11.1
2020-Jan-24 13:48 297 8 gusting 13 11.1
2020-Jan-24 13:43 310 8 gusting 13 11.1
2020-Jan-24 13:38 304 8 gusting 12 11.1
2020-Jan-24 13:33 303 6 gusting 11 11.7
2020-Jan-24 13:28 295 6 gusting 10 11.1
2020-Jan-24 13:23 304 6 gusting 11 11.7
2020-Jan-24 13:18 298 6 gusting 10 11.7
2020-Jan-24 13:13 303 6 gusting 10 11.7
2020-Jan-24 13:08 291 4 gusting 10 11.7
2020-Jan-24 13:03 305 8 gusting 13 11.7
2020-Jan-24 12:58 311 7 gusting 10 11.7
2020-Jan-24 12:53 308 6 gusting 12 11.7
2020-Jan-24 12:48 313 7 gusting 13 11.7
2020-Jan-24 12:43 317 7 gusting 11 12.2
2020-Jan-24 12:38 309 8 gusting 13 12.2
2020-Jan-24 12:33 301 7 gusting 12 12.2
2020-Jan-24 12:28 318 7 gusting 13 12.2
2020-Jan-24 12:23 310 10 gusting 12 12.2
2020-Jan-24 12:18 308 8 gusting 13 12.2
2020-Jan-24 12:13 322 7 gusting 11 12.2
2020-Jan-24 12:08 308 8 gusting 13 12.8
2020-Jan-24 12:03 324 7 gusting 14 12.8
2020-Jan-24 11:58 317 7 gusting 13 12.8
2020-Jan-24 11:53 309 6 gusting 10 12.8
2020-Jan-24 11:48 310 6 gusting 13 12.8
2020-Jan-24 11:43 305 9 gusting 14 12.8
2020-Jan-24 11:38 296 6 gusting 10 12.8
2020-Jan-24 11:33 300 7 gusting 12 12.8
2020-Jan-24 11:28 304 7 gusting 13 12.8
2020-Jan-24 11:23 292 7 gusting 12 12.8
2020-Jan-24 11:18 295 6 gusting 11 12.8
2020-Jan-24 11:13 295 6 gusting 10 13.3
2020-Jan-24 11:08 288 6 gusting 10 13.3
2020-Jan-24 11:03 295 7 gusting 11 13.3
2020-Jan-24 10:58 286 7 gusting 10 13.3
2020-Jan-24 10:53 294 6 gusting 10 13.3
2020-Jan-24 10:48 286 5 gusting 8 13.3
2020-Jan-24 10:43 279 6 gusting 12 13.3
2020-Jan-24 10:38 294 5 gusting 8 13.3
2020-Jan-24 10:33 283 6 gusting 8 13.3
2020-Jan-24 10:28 301 4 gusting 10 13.3
2020-Jan-24 10:23 293 5 gusting 7 13.3
2020-Jan-24 10:18 300 5 gusting 7 13.9
2020-Jan-24 10:13 303 5 gusting 10 13.9
2020-Jan-24 10:08 313 7 gusting 12 13.9
2020-Jan-24 10:03 294 6 gusting 11 13.9
2020-Jan-24 09:58 301 8 gusting 13 13.9
2020-Jan-24 09:53 305 8 gusting 11 13.9
2020-Jan-24 09:48 313 8 gusting 10 13.9
2020-Jan-24 09:43 305 7 gusting 10 13.9
2020-Jan-24 09:38 302 7 gusting 12 13.9
2020-Jan-24 09:33 308 8 gusting 12 13.9
2020-Jan-24 09:28 298 7 gusting 11 13.9
2020-Jan-24 09:23 308 6 gusting 10 13.9
2020-Jan-24 09:18 287 6 gusting 10 13.9
2020-Jan-24 09:13 290 7 gusting 12 13.9
2020-Jan-24 09:08 279 8 gusting 13 13.9
2020-Jan-24 09:03 291 8 gusting 13 14.4
2020-Jan-24 08:58 298 10 gusting 15 14.4
2020-Jan-24 08:53 296 8 gusting 13 14.4
2020-Jan-24 08:48 305 8 gusting 13 14.4
2020-Jan-24 08:43 302 8 gusting 12 14.4
2020-Jan-24 08:38 283 9 gusting 13 14.4
2020-Jan-24 08:33 291 7 gusting 13 14.4
2020-Jan-24 08:28 288 6 gusting 13 14.4
2020-Jan-24 08:23 295 8 gusting 13 14.4
2020-Jan-24 08:18 298 9 gusting 13 15.0
2020-Jan-24 08:13 295 8 gusting 13 15.0
2020-Jan-24 08:08 308 8 gusting 12 15.0
2020-Jan-24 08:03 297 7 gusting 10 15.0